Regional Weather Roundup
Issued by NWS

Home | Current Version | Previous Version | Text Only | Print | Product List | Glossary Off
Versions: 1 2 3 4 5 6 7 8 9 10 11 12 13 14 15 16 17 18 19 20 21 22 23 24 25 26 27 28 29 30 31 32 33 34 35 36 37 38 39 40 41 42 43 44 45 46 47 48 49 50

372
ASUS44 KMEG 051510
RWRTN
TENNESSEE HOURLY STATE WEATHER ROUNDUP
NATIONAL WEATHER SERVICE MEMPHIS TN
1000 AM CDT THU MAY 05 2016

TNZ002-004-019-021-049-052-054-088>092-051600-
WEST TENNESSEE

CITY           SKY/WX    TMP DP  RH WIND       PRES   REMARKS
MEMPHIS INTL   MOSUNNY   66  44  45 NW13      29.97R
NWS MEMPHIS      N/A     64 N/A N/A MISG        N/A
JACKSON        SUNNY     63  41  44 NW14      29.93R
DYERSBURG      SUNNY     61  39  44 NW12G17   29.95R
UNION CITY     SUNNY     59  41  51 N15       29.93R
LEXINGTON      SUNNY     61  39  44 NW12      29.88S
$$

TNZ008-025-027-028-033-062-065-066-051600-
NORTH MIDDLE TENNESSEE

CITY           SKY/WX    TMP DP  RH WIND       PRES   REMARKS
NASHVILLE      MOSUNNY   58  38  47 NW16      29.83S
CLARKSVILLE    PTSUNNY   55  41  59 N18G24    29.88R
SMYRNA         MOSUNNY   59  42  53 NW17      29.84R
COOKEVILLE     PTSUNNY   52  46  82 NW3       29.79S
CROSSVILLE     CLOUDY    46  41  82 W7        29.79S
$$

TNZ061-075-076-078-094-096-097-051600-
SOUTH MIDDLE TENNESSEE

CITY           SKY/WX    TMP DP  RH WIND       PRES   REMARKS
TULLAHOMA      SUNNY     57  43  58 W15       29.82F
WINCHESTER     SUNNY     55  45  67 W9        29.83F
MCMINNVILLE    MOSUNNY   54  45  71 NW7       29.81S
COLUMBIA       SUNNY     59  45  58 NW12      29.84R
SHELBYVILLE    SUNNY     61  46  59 W15       29.83S
$$

TNZ017-018-042-046-047-051600-
NORTHEAST TENNESSEE

CITY           SKY/WX    TMP DP  RH WIND       PRES   REMARKS
TRI CITIES     CLOUDY    49  36  61 NW7       29.75R
$$

TNZ012-013-036-069-073-074-051600-
CENTRAL EAST TENNESSEE

CITY           SKY/WX    TMP DP  RH WIND       PRES   REMARKS
KNOXVILLE      LGT RAIN  49  44  83 W10       29.79S
OAK RIDGE      CLOUDY    49  43  80 VRB3      29.80S
GATLINBURG     CLOUDY    50  43  76 W9        29.77S
MORRISTOWN     PTSUNNY   48  41  76 NW7       29.76S
$$

TNZ083-085-099-051600-
SOUTHEAST TENNESSEE

CITY           SKY/WX    TMP DP  RH WIND       PRES   REMARKS
CHATTANOOGA    PTSUNNY   55  40  56 W6        29.82S
$$

SKY/WX REPORTED AS FAIR MEANS FEW OR NO CLOUDS BELOW
12 THOUSAND FEET.





USA.gov is the U.S. government's official web portal to all federal, state and local government web resources and services.